| time (UTC) | temp F | wind direction | speed MPH | gust MPH | rain 1hr in | rain 24hr in | rain mn in | humidity % | barometer mb |
| 20260504034600 | 49 | 217 | 0.0 | 0.0 | 0.00 | 0.00 | 0.00 | 64 | 1009.6 |
| 20260504034501 | 49 | 238 | 0.0 | 0.0 | 0.00 | 0.00 | 0.00 | 64 | 1009.7 |
| 20260504034100 | 49 | 169 | 0.0 | 1.0 | 0.00 | 0.00 | 0.00 | 64 | 1009.7 |
| 20260504033600 | 49 | 264 | 0.0 | 1.0 | 0.00 | 0.00 | 0.00 | 65 | 1009.8 |
| 20260504033123 | 49 | 234 | 0.0 | 0.0 | 0.00 | 0.00 | 0.00 | 66 | 1009.7 |
| 20260504032600 | 49 | 227 | 0.0 | 0.0 | 0.00 | 0.00 | 0.00 | 66 | 1009.7 |
| 20260504032059 | 49 | 223 | 0.0 | 0.0 | 0.00 | 0.00 | 0.00 | 67 | 1009.7 |
| 20260504031600 | 48 | 152 | 0.0 | 0.0 | 0.00 | 0.00 | 0.00 | 68 | 1009.8 |
| 20260504031058 | 48 | 172 | 0.0 | 0.0 | 0.00 | 0.00 | 0.00 | 69 | 1009.8 |
| 20260504030600 | 48 | 159 | 0.0 | 1.0 | 0.00 | 0.00 | 0.00 | 70 | 1009.9 |
| 20260504030117 | 48 | 214 | 0.0 | 1.0 | 0.00 | 0.00 | 0.00 | 70 | 1009.9 |
| 20260504025558 | 48 | 167 | 0.0 | 1.0 | 0.00 | 0.00 | 0.00 | 70 | 1010.0 |
| 20260504025057 | 48 | 240 | 0.0 | 0.0 | 0.00 | 0.00 | 0.00 | 71 | 1010.0 |
| 20260504024559 | 48 | 249 | 0.0 | 0.0 | 0.00 | 0.00 | 0.00 | 71 | 1010.1 |
| 20260504024057 | 48 | 266 | 0.0 | 0.0 | 0.00 | 0.00 | 0.00 | 71 | 1010.3 |
| 20260504023558 | 48 | 231 | 0.0 | 9.0 | 0.00 | 0.00 | 0.00 | 71 | 1010.4 |
| 20260504023057 | 48 | 258 | 0.0 | 9.0 | 0.00 | 0.00 | 0.00 | 72 | 1010.4 |
| 20260504022601 | 48 | 226 | 0.0 | 1.0 | 0.00 | 0.00 | 0.00 | 74 | 1010.5 |
| 20260504022100 | 48 | 318 | 0.0 | 1.0 | 0.00 | 0.00 | 0.00 | 73 | 1010.5 |
| 20260504021557 | 48 | 292 | 0.0 | 8.0 | 0.00 | 0.00 | 0.00 | 73 | 1010.5 |
| 20260504021056 | 49 | 283 | 1.0 | 11.0 | 0.00 | 0.00 | 0.00 | 72 | 1010.7 |
| 20260504020559 | 49 | 300 | 4.0 | 14.0 | 0.00 | 0.00 | 0.00 | 69 | 1010.9 |
| 20260504020106 | 50 | 291 | 3.0 | 18.0 | 0.00 | 0.00 | 0.00 | 65 | 1010.9 |
| 20260504015556 | 51 | 290 | 3.0 | 20.0 | 0.00 | 0.00 | 0.00 | 62 | 1010.9 |
| 20260504015055 | 51 | 268 | 8.0 | 20.0 | 0.00 | 0.00 | 0.00 | 61 | 1010.8 |
| 20260504014604 | 51 | 300 | 0.0 | 9.0 | 0.00 | 0.00 | 0.00 | 60 | 1010.6 |
| 20260504014054 | 51 | 309 | 1.0 | 9.0 | 0.00 | 0.00 | 0.00 | 58 | 1010.6 |
| 20260504013554 | 51 | 302 | 0.0 | 12.0 | 0.00 | 0.00 | 0.00 | 58 | 1010.5 |
| 20260504013056 | 52 | 238 | 3.0 | 16.0 | 0.00 | 0.00 | 0.00 | 57 | 1010.5 |
| 20260504012555 | 52 | 273 | 2.0 | 20.0 | 0.00 | 0.00 | 0.00 | 57 | 1010.4 |
| 20260504012052 | 52 | 263 | 8.0 | 20.0 | 0.00 | 0.00 | 0.00 | 56 | 1010.5 |
| 20260504011553 | 52 | 286 | 5.0 | 21.0 | 0.00 | 0.00 | 0.00 | 54 | 1010.4 |
| 20260504011052 | 52 | 273 | 7.0 | 21.0 | 0.00 | 0.00 | 0.00 | 54 | 1010.4 |
| 20260504010552 | 52 | 247 | 4.0 | 16.0 | 0.00 | 0.00 | 0.00 | 55 | 1010.4 |
| 20260504010058 | 51 | 245 | 1.0 | 13.0 | 0.00 | 0.00 | 0.00 | 56 | 1010.3 |
| 20260504005554 | 51 | 273 | 0.0 | 12.0 | 0.00 | 0.00 | 0.00 | 57 | 1010.1 |
| 20260504005052 | 50 | 217 | 3.0 | 12.0 | 0.00 | 0.00 | 0.00 | 57 | 1010.1 |
| 20260504004552 | 50 | 234 | 0.0 | 1.0 | 0.00 | 0.00 | 0.00 | 58 | 1010.0 |
| 20260504004051 | 50 | 277 | 0.0 | 1.0 | 0.00 | 0.00 | 0.00 | 58 | 1010.0 |
| 20260504003551 | 50 | 230 | 0.0 | 0.0 | 0.00 | 0.00 | 0.00 | 58 | 1010.0 |
| 20260504003051 | 50 | 164 | 0.0 | 0.0 | 0.00 | 0.00 | 0.00 | 58 | 1009.9 |
| 20260504002551 | 50 | 251 | 0.0 | 0.0 | 0.00 | 0.00 | 0.00 | 58 | 1009.9 |
| 20260504002051 | 50 | 226 | 0.0 | 0.0 | 0.00 | 0.00 | 0.00 | 58 | 1009.9 |
| 20260504001557 | 50 | 240 | 0.0 | 1.0 | 0.00 | 0.00 | 0.00 | 58 | 1009.8 |
| 20260504001051 | 50 | 248 | 0.0 | 6.0 | 0.00 | 0.00 | 0.00 | 57 | 1009.8 |
| 20260504000551 | 50 | 166 | 0.0 | 6.0 | 0.00 | 0.00 | 0.00 | 57 | 1009.8 |
| 20260504000057 | 50 | 197 | 0.0 | 7.0 | 0.00 | 0.00 | 0.00 | 56 | 1009.8 |
| 20260503235550 | 51 | 256 | 0.0 | 13.0 | 0.00 | 0.00 | 0.00 | 56 | 1009.9 |
| 20260503235049 | 51 | 255 | 5.0 | 13.0 | 0.00 | 0.00 | 0.00 | 55 | 1010.0 |
| 20260503234550 | 51 | 273 | 1.0 | 17.0 | 0.00 | 0.00 | 0.00 | 55 | 1010.1 |
| 20260503234049 | 51 | 249 | 2.0 | 16.0 | 0.00 | 0.00 | 0.00 | 54 | 1010.3 |
| 20260503233549 | 51 | 306 | 6.0 | 20.0 | 0.00 | 0.00 | 0.00 | 52 | 1010.3 |
| 20260503233051 | 51 | 325 | 0.0 | 20.0 | 0.00 | 0.00 | 0.00 | 52 | 1010.2 |
| 20260503232552 | 51 | 247 | 5.0 | 13.0 | 0.00 | 0.00 | 0.00 | 51 | 1010.1 |
| 20260503232048 | 51 | 301 | 2.0 | 12.0 | 0.00 | 0.00 | 0.00 | 51 | 1010.0 |
| 20260503231547 | 51 | 217 | 0.0 | 0.0 | 0.00 | 0.00 | 0.00 | 51 | 1010.0 |
| 20260503231047 | 51 | 258 | 0.0 | 1.0 | 0.00 | 0.00 | 0.00 | 50 | 1009.9 |
| 20260503230548 | 51 | 287 | 0.0 | 1.0 | 0.00 | 0.00 | 0.00 | 50 | 1009.9 |
| 20260503230104 | 51 | 242 | 0.0 | 2.0 | 0.00 | 0.00 | 0.00 | 50 | 1009.9 |
| 20260503225547 | 51 | 283 | 0.0 | 4.0 | 0.00 | 0.00 | 0.00 | 49 | 1009.8 |
| 20260503225047 | 52 | 249 | 0.0 | 4.0 | 0.00 | 0.00 | 0.00 | 49 | 1009.7 |
| 20260503224546 | 52 | 199 | 0.0 | 3.0 | 0.00 | 0.00 | 0.00 | 50 | 1009.7 |
| 20260503224048 | 52 | 273 | 0.0 | 3.0 | 0.00 | 0.00 | 0.00 | 49 | 1009.7 |
| 20260503223547 | 52 | 254 | 0.0 | 2.0 | 0.00 | 0.00 | 0.00 | 48 | 1009.7 |
| 20260503223101 | 52 | 240 | 0.0 | 1.0 | 0.00 | 0.00 | 0.00 | 50 | 1009.6 |
| 20260503222546 | 52 | 315 | 0.0 | 7.0 | 0.00 | 0.00 | 0.00 | 49 | 1009.6 |
| 20260503222043 | 52 | 293 | 0.0 | 10.0 | 0.00 | 0.00 | 0.00 | 49 | 1009.7 |
| 20260503221549 | 52 | 227 | 1.0 | 11.0 | 0.00 | 0.00 | 0.00 | 49 | 1009.9 |
| 20260503221045 | 51 | 271 | 2.0 | 10.0 | 0.00 | 0.00 | 0.00 | 50 | 1009.9 |
| 20260503220542 | 51 | 247 | 0.0 | 10.0 | 0.00 | 0.00 | 0.00 | 51 | 1010.0 |
| 20260503220042 | 51 | 276 | 1.0 | 10.0 | 0.00 | 0.00 | 0.00 | 51 | 1010.0 |
| 20260503215542 | 51 | 249 | 1.0 | 10.0 | 0.00 | 0.00 | 0.00 | 51 | 1010.0 |
| 20260503215041 | 51 | 259 | 2.0 | 13.0 | 0.00 | 0.00 | 0.00 | 51 | 1009.9 |
| 20260503214553 | 51 | 275 | 6.0 | 14.0 | 0.00 | 0.00 | 0.00 | 51 | 1009.9 |
| 20260503214041 | 51 | 271 | 2.0 | 11.0 | 0.00 | 0.00 | 0.00 | 52 | 1009.9 |
| 20260503213541 | 51 | 285 | 2.0 | 8.0 | 0.00 | 0.00 | 0.00 | 51 | 1009.9 |
| 20260503213045 | 51 | 248 | 1.0 | 16.0 | 0.00 | 0.00 | 0.00 | 52 | 1009.9 |
| 20260503212541 | 51 | 275 | 6.0 | 15.0 | 0.00 | 0.00 | 0.00 | 51 | 1009.9 |
| 20260503212040 | 51 | 261 | 4.0 | 13.0 | 0.00 | 0.00 | 0.00 | 51 | 1009.9 |
| 20260503211541 | 51 | 234 | 3.0 | 14.0 | 0.00 | 0.00 | 0.00 | 51 | 1009.9 |
| 20260503211039 | 51 | 228 | 2.0 | 13.0 | 0.00 | 0.00 | 0.00 | 52 | 1009.8 |
| 20260503210539 | 51 | 276 | 1.0 | 9.0 | 0.00 | 0.00 | 0.00 | 51 | 1010.0 |
| 20260503210038 | 51 | 337 | 2.0 | 10.0 | 0.00 | 0.00 | 0.00 | 52 | 1010.0 |
| 20260503205537 | 51 | 299 | 1.0 | 10.0 | 0.00 | 0.00 | 0.00 | 51 | 1010.1 |
| 20260503205037 | 51 | 258 | 0.0 | 13.0 | 0.00 | 0.00 | 0.00 | 52 | 1010.0 |
| 20260503204543 | 51 | 280 | 4.0 | 11.0 | 0.00 | 0.00 | 0.00 | 50 | 1010.0 |
| 20260503204036 | 51 | 293 | 0.0 | 10.0 | 0.00 | 0.00 | 0.00 | 52 | 1010.0 |
| 20260503203535 | 51 | 279 | 3.0 | 10.0 | 0.00 | 0.00 | 0.00 | 51 | 1010.1 |
| 20260503203035 | 51 | 277 | 4.0 | 10.0 | 0.00 | 0.00 | 0.00 | 51 | 1010.1 |
| 20260503202534 | 50 | 272 | 2.0 | 10.0 | 0.00 | 0.00 | 0.00 | 51 | 1010.3 |
| 20260503202036 | 50 | 290 | 1.0 | 10.0 | 0.00 | 0.00 | 0.00 | 52 | 1010.2 |
| 20260503201534 | 50 | 249 | 2.0 | 15.0 | 0.00 | 0.00 | 0.00 | 50 | 1010.3 |
| 20260503201032 | 50 | 278 | 7.0 | 15.0 | 0.00 | 0.00 | 0.00 | 50 | 1010.4 |
| 20260503200532 | 50 | 245 | 2.0 | 15.0 | 0.00 | 0.00 | 0.00 | 49 | 1010.4 |
| 20260503200032 | 50 | 305 | 2.0 | 15.0 | 0.00 | 0.00 | 0.00 | 51 | 1010.4 |
| 20260503195531 | 50 | 227 | 8.0 | 14.0 | 0.00 | 0.00 | 0.00 | 49 | 1010.5 |
| 20260503195032 | 50 | 251 | 1.0 | 11.0 | 0.00 | 0.00 | 0.00 | 50 | 1010.5 |
| 20260503194537 | 50 | 272 | 0.0 | 13.0 | 0.00 | 0.00 | 0.00 | 49 | 1010.6 |
| 20260503194030 | 50 | 293 | 4.0 | 15.0 | 0.00 | 0.00 | 0.00 | 48 | 1010.6 |
| 20260503193530 | 50 | 266 | 5.0 | 17.0 | 0.00 | 0.00 | 0.00 | 47 | 1010.6 |
| 20260503193031 | 50 | 281 | 4.0 | 19.0 | 0.00 | 0.00 | 0.00 | 47 | 1010.7 |
| 20260503192529 | 50 | 307 | 0.0 | 23.0 | 0.00 | 0.00 | 0.00 | 46 | 1010.6 |
| 20260503192032 | 50 | 254 | 12.0 | 23.0 | 0.00 | 0.00 | 0.00 | 45 | 1010.6 |
| 20260503191529 | 50 | 281 | 2.0 | 16.0 | 0.00 | 0.00 | 0.00 | 46 | 1010.7 |
| 20260503191031 | 50 | 264 | 6.0 | 16.0 | 0.00 | 0.00 | 0.00 | 44 | 1010.7 |
| 20260503190528 | 50 | 266 | 1.0 | 19.0 | 0.00 | 0.00 | 0.00 | 44 | 1010.6 |
| 20260503190039 | 50 | 299 | 7.0 | 19.0 | 0.00 | 0.00 | 0.00 | 43 | 1010.8 |
| 20260503185526 | 51 | 289 | 3.0 | 16.0 | 0.00 | 0.00 | 0.00 | 44 | 1011.0 |
| 20260503185029 | 50 | 219 | 4.0 | 15.0 | 0.00 | 0.00 | 0.00 | 44 | 1011.0 |
| 20260503184524 | 50 | 282 | 1.0 | 16.0 | 0.00 | 0.00 | 0.00 | 45 | 1011.0 |
| 20260503184024 | 50 | 279 | 5.0 | 15.0 | 0.00 | 0.00 | 0.00 | 43 | 1011.1 |
| 20260503183522 | 50 | 299 | 7.0 | 16.0 | 0.00 | 0.00 | 0.00 | 43 | 1011.2 |
| 20260503183022 | 50 | 263 | 4.0 | 16.0 | 0.00 | 0.00 | 0.00 | 42 | 1011.2 |
| 20260503182520 | 50 | 247 | 0.0 | 11.0 | 0.00 | 0.00 | 0.00 | 45 | 1011.3 |
| 20260503182019 | 50 | 261 | 1.0 | 12.0 | 0.00 | 0.00 | 0.00 | 43 | 1011.4 |
| 20260503181537 | 50 | 120 | 1.0 | 12.0 | 0.00 | 0.00 | 0.00 | 45 | 1011.5 |
| 20260503181018 | 50 | 275 | 0.0 | 11.0 | 0.00 | 0.00 | 0.00 | 44 | 1011.6 |
| 20260503180516 | 49 | 301 | 1.0 | 12.0 | 0.00 | 0.00 | 0.00 | 43 | 1011.7 |
| 20260503180024 | 49 | 245 | 2.0 | 18.0 | 0.00 | 0.00 | 0.00 | 42 | 1011.7 |
| 20260503175518 | 49 | 321 | 5.0 | 18.0 | 0.00 | 0.00 | 0.00 | 43 | 1011.8 |
| 20260503175013 | 49 | 259 | 0.0 | 12.0 | 0.00 | 0.00 | 0.00 | 43 | 1011.8 |
| 20260503174513 | 48 | 290 | 2.0 | 11.0 | 0.00 | 0.00 | 0.00 | 43 | 1011.9 |
| 20260503174015 | 48 | 329 | 0.0 | 4.0 | 0.00 | 0.00 | 0.00 | 44 | 1011.9 |
| 20260503173512 | 48 | 252 | 0.0 | 12.0 | 0.00 | 0.00 | 0.00 | 45 | 1011.9 |
| 20260503173011 | 48 | 254 | 0.0 | 11.0 | 0.00 | 0.00 | 0.00 | 44 | 1011.9 |
| 20260503172510 | 48 | 314 | 1.0 | 11.0 | 0.00 | 0.00 | 0.00 | 42 | 1012.1 |
| 20260503172010 | 48 | 275 | 0.0 | 7.0 | 0.00 | 0.00 | 0.00 | 43 | 1012.1 |
| 20260503171520 | 48 | 319 | 1.0 | 12.0 | 0.00 | 0.00 | 0.00 | 42 | 1012.1 |
| 20260503171007 | 47 | 309 | 1.0 | 14.0 | 0.00 | 0.00 | 0.00 | 43 | 1012.2 |
| 20260503170508 | 47 | 267 | 2.0 | 14.0 | 0.00 | 0.00 | 0.00 | 43 | 1012.3 |
| 20260503150546 | 44 | 294 | 0.0 | 7.0 | 0.00 | 0.00 | 0.00 | 54 | 1013.5 |
| 20260503131029 | 40 | 325 | 0.0 | 5.0 | 0.00 | 0.00 | 0.00 | 73 | 1013.9 |
| 20260503130532 | 40 | 285 | 0.0 | 5.0 | 0.00 | 0.00 | 0.00 | 75 | 1014.0 |
| 20260503110519 | 36 | 255 | 0.0 | 0.0 | 0.00 | 0.00 | 0.00 | 87 | 1013.4 |
| 20260503090507 | 36 | 235 | 0.0 | 0.0 | 0.00 | 0.00 | 0.00 | 85 | 1013.1 |
| 20260503081504 | 36 | 286 | 0.0 | 0.0 | 0.00 | 0.00 | 0.00 | 86 | 1013.2 |
| 20260503081006 | 36 | 307 | 0.0 | 0.0 | 0.00 | 0.00 | 0.00 | 86 | 1013.2 |
| 20260503080503 | 36 | 271 | 0.0 | 0.0 | 0.00 | 0.00 | 0.00 | 86 | 1013.2 |
| 20260503072502 | 36 | 280 | 0.0 | 0.0 | 0.00 | 0.00 | 0.00 | 86 | 1013.2 |
| 20260503072002 | 36 | 295 | 0.0 | 0.0 | 0.00 | 0.00 | 0.00 | 86 | 1013.2 |
| 20260503071500 | 36 | 248 | 0.0 | 0.0 | 0.00 | 0.00 | 0.00 | 86 | 1013.2 |
| 20260503071001 | 36 | 325 | 0.0 | 0.0 | 0.00 | 0.00 | 0.00 | 86 | 1013.2 |
| 20260503070503 | 36 | 228 | 0.0 | 0.0 | 0.00 | 0.00 | 0.00 | 86 | 1013.1 |
| 20260503055056 | 36 | 268 | 0.0 | 0.0 | 0.00 | 0.00 | 0.00 | 87 | 1013.4 |
| 20260503054559 | 36 | 261 | 0.0 | 0.0 | 0.00 | 0.00 | 0.00 | 87 | 1013.5 |
| 20260503054054 | 36 | 248 | 0.0 | 0.0 | 0.00 | 0.00 | 0.00 | 87 | 1013.5 |
| 20260503053554 | 36 | 240 | 0.0 | 0.0 | 0.00 | 0.00 | 0.00 | 87 | 1013.5 |
| 20260503053054 | 36 | 264 | 0.0 | 0.0 | 0.00 | 0.00 | 0.00 | 87 | 1013.5 |
| 20260503052553 | 35 | 269 | 0.0 | 0.0 | 0.00 | 0.00 | 0.00 | 87 | 1013.6 |
| 20260503052052 | 35 | 259 | 0.0 | 0.0 | 0.00 | 0.00 | 0.00 | 87 | 1013.6 |
| 20260503051552 | 35 | 240 | 0.0 | 0.0 | 0.00 | 0.00 | 0.00 | 86 | 1013.7 |
| 20260503051050 | 35 | 241 | 0.0 | 0.0 | 0.00 | 0.00 | 0.00 | 87 | 1013.8 |
| 20260503050549 | 35 | 245 | 0.0 | 0.0 | 0.00 | 0.00 | 0.00 | 86 | 1013.9 |
| 20260503050048 | 35 | 245 | 0.0 | 0.0 | 0.00 | 0.00 | 0.00 | 86 | 1013.9 |
| 20260503045547 | 35 | 213 | 0.0 | 0.0 | 0.00 | 0.01 | 0.00 | 86 | 1013.9 |
| 20260503045046 | 35 | 195 | 0.0 | 0.0 | 0.00 | 0.01 | 0.00 | 86 | 1014.0 |
| 20260503044600 | 35 | 233 | 0.0 | 0.0 | 0.00 | 0.01 | 0.00 | 86 | 1014.1 |
| 20260503044046 | 34 | 235 | 0.0 | 0.0 | 0.00 | 0.01 | 0.00 | 86 | 1014.1 |
| 20260503043545 | 34 | 241 | 0.0 | 0.0 | 0.00 | 0.01 | 0.00 | 86 | 1014.1 |
| 20260503043045 | 34 | 242 | 0.0 | 0.0 | 0.00 | 0.01 | 0.00 | 86 | 1014.1 |
| 20260503042547 | 34 | 230 | 0.0 | 0.0 | 0.00 | 0.01 | 0.00 | 86 | 1014.2 |
| 20260503042044 | 34 | 178 | 0.0 | 0.0 | 0.00 | 0.01 | 0.00 | 86 | 1014.2 |
| 20260503041600 | 34 | 224 | 0.0 | 0.0 | 0.00 | 0.01 | 0.00 | 86 | 1014.3 |
| 20260503041041 | 34 | 212 | 0.0 | 0.0 | 0.00 | 0.01 | 0.00 | 87 | 1014.3 |
| 20260503040541 | 34 | 233 | 0.0 | 0.0 | 0.00 | 0.01 | 0.00 | 87 | 1014.3 |
| 20260503040050 | 34 | 247 | 0.0 | 0.0 | 0.00 | 0.01 | 0.00 | 87 | 1014.3 |
| 20260503035541 | 34 | 247 | 0.0 | 0.0 | 0.00 | 0.03 | 0.01 | 88 | 1014.3 |
| 20260503035042 | 34 | 230 | 0.0 | 0.0 | 0.00 | 0.03 | 0.01 | 88 | 1014.3 |